#timestamp,LO_Frequency,Hit,StdDev 
1581737355.7,286047036.5,P
1581737375.5,286047038.7,P
1581737395.3,286047038.7,P
1581737415.2,286047039.0,Y
1581737435.0,286047000.5,P
1581737435.9,286047000.5,N
1581737455.8,286046999.9,N
1581737475.6,286047002.2,N
1581737495.4,286047001.5,N
1581737515.3,286047003.7,N
1581737535.1,286047003.1,N
1581737555.9,286047005.0,N
1581737575.7,286047005.2,N
1581737595.5,286047004.5,N
1581737615.4,286047006.4,N
1581737635.2,286047009.2,N
1581737655.0,286047008.9,N
1581737655.9,286047008.9,N
1581737675.8,286047010.4,N
1581737695.6,286047009.8,N
1581737715.5,286047010.6,N
1581737735.3,286047012.3,N
1581737755.1,286047011.7,N
1581737775.9,286047011.8,N
1581737795.7,286047012.2,N
1581737815.5,286047011.7,N
1581737835.4,286047012.6,N
1581737855.2,286047017.2,N
1581737875.1,286047017.0,N
1581737876.0,286047017.0,N
1581737895.8,286047017.1,N
1581737915.6,286047016.4,N
1581737935.5,286047016.4,N
1581737955.3,286047015.9,N
1581737975.2,286047015.9,N
1581737995.9,286047018.3,Y
1581738015.7,286047008.7,P
1581738035.6,286047010.4,P
1581738055.4,286047012.3,P
1581738075.3,286047011.8,Y
1581738095.1,286047002.7,P
1581738096.0,286047002.7,N
1581738115.8,286046999.8,N
1581738135.7,286047002.1,N
1581738155.5,286047003.9,N
1581738175.3,286047001.3,N
1581738195.2,286047003.1,N
1581738215.0,286047003.1,N
1581738215.9,286047003.1,N
1581738235.8,286047003.3,N
1581738255.6,286047003.1,N
1581738275.4,286047004.2,N
1581738295.3,286047004.3,N
1581738315.1,286047003.7,N
1581738335.8,286047003.0,N
1581738355.7,286047005.2,N
1581738375.5,286047006.9,Y
1581738395.4,286047002.2,P
1581738415.2,286047003.6,P
1581738435.0,286047004.7,P
1581738435.9,286047004.7,Y
1581738455.8,286047001.3,P
1581738475.6,286047003.2,N
1581738495.4,286047001.5,N
1581738515.3,286047002.6,N
1581738535.1,286046999.9,N
1581738555.9,286046998.1,N
1581738575.7,286046998.6,N
1581738595.5,286047001.2,N
1581738615.4,286047001.2,N
1581738635.2,286047000.0,N
1581738655.0,286047002.2,N
1581738656.0,286047002.2,N
1581738675.8,286047001.6,N
1581738695.6,286047000.1,N
1581738715.5,286047002.4,N
1581738735.3,286047000.3,N
1581738755.1,286047001.2,N
1581738775.9,286047000.9,N
1581738795.7,286047000.7,N
1581738815.5,286046998.5,N
1581738835.4,286047000.0,N
1581738855.2,286047004.3,Y
1581738875.1,286047001.8,P
1581738876.0,286047001.8,P
1581738895.8,286047004.3,P
1581738915.6,286047004.4,Y
1581738935.5,286047000.4,P
1581738955.3,286047001.1,N
1581738975.2,286046998.3,N
1581738995.9,286047000.8,N
1581739015.7,286047000.1,N
1581739035.6,286046998.2,N
1581739055.4,286046999.5,N
1581739075.3,286046997.7,N
1581739095.1,286046997.8,N
1581739096.0,286046997.8,N
1581739115.8,286046995.1,Y
1581739135.7,286046997.6,P
1581739155.5,286046997.6,N
1581739175.4,286046997.7,N
1581739195.2,286046996.4,Y
